Weather History for Glenwood, MN

Change the Weather History Date:

Sunday, April 28, 2013

  Actual Average Record
Temperature  
Mean Temperature 58 °F -  
Max Temperature 71 °F 62 °F 93 °F (2004)
Min Temperature 46 °F 37 °F 24 °F (1950)
Degree Days  
Heating Degree Days 6    
Growing Degree Days 8 (Base 50)    
Moisture  
Dew Point 44 °F    
Average Humidity 63    
Maximum Humidity 82    
Minimum Humidity 38    
Precipitation  
Precipitation 0.00 in - - ()
Sea Level Pressure  
Sea Level Pressure 29.75 in    
Wind  
Wind Speed 11 mph (SW)    
Max Wind Speed 18 mph    
Max Gust Speed 18 mph    
Visibility 10 miles    
Events      
Averages and records for this station are not official NWS values.
T = Trace of Precipitation, MM = Missing Value Source: NWS Daily Summary

Daily Weather History Graph

Daily Weather History Graph

Search for Another Location

Airport:

Trip Planner

Search our weather history database for the weather conditions in past years. The results will help you decide how hot, cold, wet, or windy it might be!

Date:

Astronomy

Apr. 28, 2013 Rise Set
Actual Time 6:13 AM CDT 8:24 PM CDT
Civil Twilight 5:40 AM CDT 8:57 PM CDT
Nautical Twilight 5:00 AM CDT 9:38 PM CDT
Astronomical Twilight 4:15 AM CDT 10:23 PM CDT
Moon No Moon Rise 8:25 AM CDT (4/28)
Length of Visible Light 15h 16m
Length of Day
14h 11m
Waning Gibbous, 88% of the Moon is Illuminated
Apr 28
Waning Gibbous
May 2
Last Quarter
May 9
New
May 17
First Quarter
May 24
Full

Hourly Weather History & Observations

Time (CDT) Temp. Windchill Dew Point Humidity Pressure Visibility Wind Dir Wind Speed Gust Speed Precip Events Conditions
12:13 AM 51.8 °F - 35.6 °F 54% 29.82 in 10.0 mi SSE 8.1 mph - N/A   Clear
12:33 AM 51.8 °F - 35.6 °F 54% 29.82 in 10.0 mi South 10.4 mph - N/A   Clear
12:54 AM 53.6 °F - 35.6 °F 51% 29.82 in 10.0 mi South 13.8 mph - N/A   Clear
1:13 AM 53.6 °F - 37.4 °F 54% 29.82 in 10.0 mi South 13.8 mph - N/A   Clear
1:33 AM 53.6 °F - 39.2 °F 58% 29.81 in 10.0 mi South 18.4 mph - N/A   Clear
1:53 AM 53.6 °F - 39.2 °F 58% 29.81 in 10.0 mi South 17.3 mph - N/A   Clear
2:13 AM 53.6 °F - 39.2 °F 58% 29.80 in 10.0 mi South 15.0 mph - N/A   Clear
2:33 AM 51.8 °F - 41.0 °F 67% 29.79 in 10.0 mi South 13.8 mph - N/A   Clear
2:53 AM 51.8 °F - 41.0 °F 67% 29.79 in 10.0 mi South 13.8 mph - N/A   Clear
3:13 AM 51.8 °F - 41.0 °F 67% 29.78 in 10.0 mi South 15.0 mph - N/A   Clear
3:33 AM 51.8 °F - 41.0 °F 67% 29.77 in 10.0 mi South 16.1 mph - N/A   Clear
3:53 AM 51.8 °F - 42.8 °F 71% 29.77 in 10.0 mi South 15.0 mph - N/A   Clear
4:13 AM 50.0 °F - 42.8 °F 76% 29.76 in 10.0 mi SSE 12.7 mph - N/A   Clear
4:33 AM 50.0 °F - 42.8 °F 76% 29.76 in 10.0 mi SSE 13.8 mph - N/A   Clear
4:53 AM 50.0 °F - 42.8 °F 76% 29.75 in 10.0 mi SSE 13.8 mph - N/A   Clear
5:13 AM 50.0 °F - 44.6 °F 82% 29.74 in 10.0 mi SSE 11.5 mph 18.4 mph N/A   Clear
5:33 AM 51.8 °F - 44.6 °F 76% 29.74 in 10.0 mi South 11.5 mph - N/A   Clear
5:53 AM 51.8 °F - 44.6 °F 76% 29.74 in 10.0 mi South 11.5 mph - N/A   Clear
6:13 AM 51.8 °F - 44.6 °F 76% 29.74 in 10.0 mi SSW 10.4 mph - N/A   Clear
6:33 AM 51.8 °F - 44.6 °F 76% 29.73 in 10.0 mi South 15.0 mph - N/A   Clear
6:53 AM 51.8 °F - 44.6 °F 76% 29.73 in 10.0 mi South 10.4 mph - N/A   Clear
7:13 AM 51.8 °F - 44.6 °F 76% 29.73 in 10.0 mi South 11.5 mph - N/A   Clear
7:33 AM 51.8 °F - 44.6 °F 76% 29.73 in 10.0 mi South 13.8 mph - N/A   Clear
7:53 AM 53.6 °F - 46.4 °F 77% 29.72 in 10.0 mi South 16.1 mph - N/A   Clear
8:13 AM 53.6 °F - 46.4 °F 77% 29.72 in 10.0 mi South 15.0 mph - N/A   Clear
8:33 AM 55.4 °F - 46.4 °F 72% 29.72 in 10.0 mi South 17.3 mph - N/A   Clear
8:53 AM 57.2 °F - 46.4 °F 67% 29.72 in 10.0 mi South 17.3 mph - N/A   Clear
9:13 AM 57.2 °F - 46.4 °F 67% 29.71 in 10.0 mi South 15.0 mph - N/A   Clear
9:33 AM 57.2 °F - 46.4 °F 67% 29.71 in 10.0 mi South 16.1 mph - N/A   Clear
9:53 AM 57.2 °F - 46.4 °F 67% 29.70 in 10.0 mi South 16.1 mph - N/A   Clear
10:13 AM 57.2 °F - 48.2 °F 72% 29.70 in 10.0 mi South 13.8 mph 18.4 mph N/A   Clear
10:33 AM 59.0 °F - 48.2 °F 67% 29.71 in 10.0 mi SSW 10.4 mph - N/A   Clear
10:53 AM 60.8 °F - 48.2 °F 63% 29.71 in 10.0 mi South 9.2 mph - N/A   Clear
11:13 AM 62.6 °F - 48.2 °F 59% 29.71 in 10.0 mi South 11.5 mph - N/A   Clear
11:34 AM 64.4 °F - 48.2 °F 56% 29.70 in 10.0 mi South 9.2 mph - N/A   Clear
11:53 AM 64.4 °F - 48.2 °F 56% 29.70 in 10.0 mi South 6.9 mph - N/A   Clear
12:13 PM 66.2 °F - 48.2 °F 52% 29.70 in 10.0 mi South 8.1 mph - N/A   Clear
12:33 PM 68.0 °F - 46.4 °F 46% 29.70 in 10.0 mi South 5.8 mph - N/A   Clear
12:53 PM 69.8 °F - 46.4 °F 43% 29.69 in 10.0 mi SSE 4.6 mph - N/A   Clear
1:13 PM 69.8 °F - 46.4 °F 43% 29.70 in 10.0 mi SW 6.9 mph - N/A   Scattered Clouds
1:33 PM 69.8 °F - 46.4 °F 43% 29.71 in 10.0 mi West 5.8 mph - N/A   Scattered Clouds
1:53 PM 69.8 °F - 46.4 °F 43% 29.71 in 10.0 mi WSW 4.6 mph - N/A   Clear
2:13 PM 71.6 °F - 44.6 °F 38% 29.71 in 10.0 mi West 5.8 mph - N/A   Clear
2:33 PM 69.8 °F - 46.4 °F 43% 29.71 in 10.0 mi WNW 6.9 mph 11.5 mph N/A   Clear
2:53 PM 69.8 °F - 48.2 °F 46% 29.72 in 10.0 mi WNW 11.5 mph - N/A   Clear
3:14 PM 69.8 °F - 46.4 °F 43% 29.73 in 10.0 mi WNW 11.5 mph - N/A   Clear
3:33 PM 69.8 °F - 46.4 °F 43% 29.73 in 10.0 mi WNW 11.5 mph - N/A   Clear
3:53 PM 69.8 °F - 44.6 °F 40% 29.71 in 10.0 mi NNW 12.7 mph - N/A   Clear
4:14 PM 68.0 °F - 44.6 °F 43% 29.72 in 10.0 mi NNW 11.5 mph - N/A   Clear
4:33 PM 66.2 °F - 44.6 °F 46% 29.73 in 10.0 mi NNW 9.2 mph - N/A   Clear
4:53 PM 66.2 °F - 44.6 °F 46% 29.73 in 10.0 mi North 8.1 mph - N/A   Clear
5:14 PM 64.4 °F - 46.4 °F 52% 29.73 in 10.0 mi North 3.5 mph - N/A   Clear
5:53 PM 64.4 °F - 44.6 °F 49% 29.75 in 10.0 mi WNW 5.8 mph - N/A   Clear
6:14 PM 64.4 °F - 44.6 °F 49% 29.74 in 10.0 mi NW 9.2 mph - N/A   Clear
6:33 PM 62.6 °F - 46.4 °F 55% 29.74 in 10.0 mi West 6.9 mph 10.4 mph N/A   Scattered Clouds
6:53 PM 60.8 °F - 46.4 °F 59% 29.74 in 10.0 mi WSW 3.5 mph - N/A   Clear
7:14 PM 59.0 °F - 46.4 °F 63% 29.75 in 10.0 mi West 11.5 mph - N/A   Clear
7:33 PM 55.4 °F - 46.4 °F 72% 29.76 in 10.0 mi West 12.7 mph - N/A   Scattered Clouds
7:53 PM 55.4 °F - 46.4 °F 72% 29.75 in 10.0 mi NW 5.8 mph - N/A   Scattered Clouds
8:14 PM 53.6 °F - 46.4 °F 77% 29.77 in 10.0 mi WNW 8.1 mph - N/A   Clear
8:33 PM 55.4 °F - 46.4 °F 72% 29.77 in 10.0 mi NW 6.9 mph - N/A   Clear
8:53 PM 53.6 °F - 46.4 °F 77% 29.77 in 10.0 mi WNW 8.1 mph - N/A   Clear
9:14 PM 53.6 °F - 46.4 °F 77% 29.79 in 10.0 mi NW 4.6 mph - N/A   Clear
9:33 PM 51.8 °F - 44.6 °F 76% 29.79 in 10.0 mi NNW 6.9 mph - N/A   Clear
9:53 PM 51.8 °F - 44.6 °F 76% 29.79 in 10.0 mi NNW 11.5 mph - N/A   Clear
10:13 PM 51.8 °F - 42.8 °F 71% 29.80 in 10.0 mi NNW 12.7 mph - N/A   Clear
10:33 PM 50.0 °F - 42.8 °F 76% 29.81 in 10.0 mi NNW 9.2 mph - N/A   Clear
10:53 PM 48.2 °F - 41.0 °F 76% 29.82 in 10.0 mi NNW 5.8 mph - N/A   Clear
11:13 PM 48.2 °F - 39.2 °F 71% 29.82 in 10.0 mi NNW 6.9 mph - N/A   Clear
11:33 PM 46.4 °F 43.5 °F 37.4 °F 71% 29.83 in 10.0 mi North 5.8 mph - N/A   Clear
11:54 PM 46.4 °F 42.4 °F 35.6 °F 66% 29.83 in 10.0 mi NNW 8.1 mph - N/A   Clear